Temp
-15 -14 -15 -15 -15 -15 -14 -14 -13 -13 -14 -13 -14 -13 -13 -12 -12 -12 -12 -12 -13 -13 -13 -13 -13 -13 -14 -14 -14 -14 -14 -14 -14 -14 -14 -14 -14 -14 -14 -14 -14 -15 -16 -16
-15 -15 -15 -15 -15 -14 -14 -14 -13 -13 -13 -13 -13 -12 -13 -12 -12 -12 -13 -13 -13 -13 -13 -14 -14 -14 -14 -14 -14 -14 -14 -14 -14 -14 -14 -14 -14 -14 -15 -15 -16 -16 -17 -17
-15 -15 -15 -14 -14 -14 -13 -13 -13 -13 -13 -14 -13 -13 -13 -12 -13 -13 -13 -13 -13 -13 -14 -14 -14 -14 -14 -14 -14 -14 -14 -14 -14 -15 -15 -14 -15 -15 -15 -16 -17 -17 -17 -17
-15 -15 -14 -14 -14 -14 -13 -13 -13 -13 -13 -13 -12 -12 -13 -13 -13 -13 -13 -13 -14 -14 -14 -14 -14 -14 -15 -15 -14 -14 -14 -15 -15 -15 -15 -15 -15 -16 -16 -17 -17 -17 -17 -18
-14 -14 -14 -14 -14 -14 -13 -13 -13 -13 -13 -13 -13 -13 -13 -13 -13 -13 -14 -14 -14 -14 -14 -15 -15 -15 -15 -15 -15 -15 -15 -15 -15 -15 -15 -16 -16 -17 -17 -17 -17 -18 -18 -18
-15 -15 -15 -15 -14 -14 -14 -14 -14 -14 -14 -14 -14 -14 -14 -14 -14 -14 -14 -14 -14 -15 -15 -15 -15 -15 -15 -15 -15 -15 -15 -16 -16 -16 -16 -16 -17 -17 -17 -18 -18 -18 -18 -19
-15 -14 -14 -15 -14 -14 -14 -14 -14 -14 -14 -14 -14 -14 -14 -14 -14 -14 -14 -14 -15 -15 -15 -15 -15 -15 -15 -15 -16 -16 -16 -16 -16 -16 -17 -17 -17 -17 -18 -18 -18 -19 -19 -20
-15 -15 -15 -15 -15 -15 -15 -15 -15 -15 -15 -14 -14 -14 -14 -14 -14 -15 -15 -15 -15 -15 -15 -15 -15 -15 -16 -16 -16 -16 -16 -16 -17 -17 -17 -17 -18 -18 -18 -18 -19 -19 -20 -20
-15 -15 -15 -15 -16 -16 -16 -15 -15 -15 -15 -14 -14 -14 -15 -14 -14 -15 -15 -15 -15 -15 -15 -15 -16 -16 -16 -16 -16 -16 -16 -17 -17 -17 -18 -18 -18 -18 -19 -19 -20 -20 -21 -22
-15 -15 -15 -16 -15 -15 -15 -15 -15 -15 -14 -14 -14 -15 -15 -15 -15 -15 -15 -15 -15 -15 -16 -16 -16 -16 -16 -16 -16 -17 -17 -17 -17 -18 -18 -18 -19 -19 -19 -20 -20 -21 -23 -25
-15 -15 -15 -15 -15 -15 -15 -15 -15 -15 -14 -14 -14 -14 -15 -15 -15 -15 -15 -15 -16 -16 -16 -16 -16 -16 -16 -17 -17 -17 -17 -17 -18 -18 -18 -19 -19 -19 -20 -21 -21 -24 -26 -27
-15 -15 -15 -15 -15 -15 -15 -14 -14 -14 -14 -14 -14 -15 -15 -15 -15 -15 -16 -16 -16 -16 -16 -16 -16 -17 -17 -17 -17 -17 -17 -18 -18 -18 -19 -19 -19 -20 -21 -22 -24 -26 -27 -28
-15 -14 -14 -14 -14 -14 -14 -14 -14 -14 -14 -14 -14 -15 -15 -15 -16 -16 -16 -16 -16 -16 -16 -17 -17 -17 -17 -17 -17 -18 -18 -18 -18 -19 -19 -19 -20 -21 -22 -23 -26 -27 -28 -28
-15 -15 -15 -14 -14 -14 -14 -14 -14 -14 -14 -14 -15 -15 -16 -16 -16 -16 -16 -17 -17 -17 -17 -17 -17 -17 -17 -17 -18 -18 -18 -18 -19 -19 -20 -20 -21 -22 -23 -25 -27 -28 -28 -28
-15 -15 -14 -14 -14 -14 -14 -14 -14 -15 -15 -16 -16 -16 -16 -16 -16 -17 -17 -17 -17 -17 -17 -17 -17 -17 -18 -18 -18 -18 -19 -19 -19 -20 -21 -21 -22 -23 -26 -27 -28 -28 -28 -28
-15 -14 -14 -14 -14 -14 -14 -15 -15 -16 -16 -16 -16 -16 -17 -17 -17 -17 -17 -18 -17 -17 -17 -17 -18 -18 -18 -18 -18 -19 -19 -19 -20 -21 -21 -22 -23 -25 -27 -28 -28 -28 -28 -28
-14 -14 -14 -15 -14 -15 -15 -15 -16 -16 -16 -17 -17 -17 -17 -17 -17 -18 -18 -17 -17 -18 -18 -18 -18 -18 -18 -19 -19 -19 -19 -20 -21 -22 -22 -24 -25 -27 -28 -28 -28 -28 -29 -30
-15 -15 -15 -15 -15 -15 -16 -16 -16 -16 -17 -17 -17 -17 -18 -18 -18 -18 -18 -18 -18 -18 -18 -18 -18 -18 -19 -19 -19 -20 -20 -21 -22 -22 -24 -25 -27 -28 -28 -28 -28 -29 -29 -29
-15 -15 -15 -16 -16 -16 -16 -16 -17 -17 -17 -17 -18 -18 -18 -18 -18 -18 -18 -18 -18 -18 -18 -18 -19 -19 -19 -19 -20 -20 -21 -22 -23 -24 -25 -27 -28 -29 -28 -29 -29 -29 -29 -29
-16 -16 -16 -16 -16 -16 -17 -17 -17 -17 -18 -18 -18 -18 -18 -18 -18 -18 -18 -18 -18 -18 -19 -19 -19 -19 -19 -20 -21 -22 -22 -23 -24 -25 -27 -28 -29 -28 -29 -29 -29 -29 -29 -29
-16 -16 -17 -17 -17 -17 -17 -18 -18 -18 -18 -18 -18 -18 -18 -18 -18 -18 -19 -19 -19 -19 -19 -19 -19 -20 -20 -21 -22 -23 -23 -24 -25 -27 -28 -29 -29 -29 -29 -29 -29 -29 -29 -29
-17 -17 -17 -17 -17 -18 -18 -18 -18 -18 -18 -18 -18 -18 -18 -19 -19 -19 -19 -19 -19 -19 -19 -20 -20 -21 -22 -22 -23 -24 -25 -26 -28 -29 -29 -29 -29 -29 -29 -29 -30 -29 -29 -28
-17 -18 -18 -18 -18 -18 -19 -18 -18 -18 -18 -19 -19 -19 -19 -19 -19 -19 -19 -19 -19 -19 -20 -20 -21 -22 -23 -23 -24 -25 -26 -28 -29 -29 -29 -29 -29 -29 -29 -30 -30 -29 -29 -28
-18 -19 -19 -19 -19 -19 -19 -19 -19 -19 -19 -19 -19 -19 -19 -19 -19 -19 -19 -19 -20 -20 -21 -22 -22 -23 -24 -24 -25 -27 -28 -29 -29 -29 -29 -29 -29 -30 -30 -30 -30 -29 -29 -28
-19 -19 -19 -19 -19 -19 -19 -19 -19 -19 -19 -19 -19 -19 -19 -19 -19 -20 -20 -20 -21 -21 -22 -23 -23 -24 -25 -26 -27 -29 -29 -29 -29 -29 -29 -30 -30 -30 -29 -29 -29 -29 -29 -28
-20 -19 -19 -19 -19 -19 -19 -19 -20 -20 -19 -19 -19 -19 -20 -20 -20 -20 -21 -21 -22 -22 -23 -24 -25 -25 -26 -28 -29 -29 -29 -29 -29 -29 -30 -30 -30 -29 -29 -29 -28 -28 -28 -27
-20 -19 -19 -19 -19 -19 -20 -20 -20 -19 -19 -20 -20 -20 -20 -21 -21 -21 -22 -22 -23 -24 -24 -25 -26 -27 -29 -29 -29 -29 -29 -29 -29 -30 -30 -30 -29 -29 -29 -28 -28 -28 -27 -26
Height
5630 5635 5643 5648 5654 5656 5662 5671 5675 5680 5683 5686 5686 5687 5690 5691 5693 5694 5695 5694 5694 5693 5692 5692 5690 5688 5686 5683 5680 5677 5673 5669 5663 5657 5651 5643 5636 5628 5618 5609 5599 5590 5580 5570
5631 5637 5641 5645 5650 5654 5660 5667 5671 5676 5681 5681 5682 5684 5684 5685 5685 5686 5687 5687 5687 5686 5685 5684 5682 5680 5677 5675 5671 5668 5663 5658 5652 5646 5638 5631 5622 5613 5603 5594 5584 5574 5565 5555
5628 5633 5638 5643 5649 5654 5660 5664 5667 5672 5676 5674 5675 5677 5676 5678 5680 5680 5681 5680 5679 5678 5677 5676 5674 5672 5669 5666 5662 5658 5653 5647 5640 5633 5625 5617 5608 5598 5589 5579 5570 5561 5550 5539
5626 5630 5634 5640 5645 5649 5653 5658 5661 5666 5667 5667 5669 5669 5671 5672 5673 5673 5673 5672 5671 5671 5670 5668 5666 5663 5660 5657 5652 5648 5642 5635 5628 5620 5612 5603 5593 5583 5574 5565 5556 5546 5535 5522
5626 5629 5633 5637 5640 5644 5647 5652 5654 5658 5658 5661 5662 5663 5664 5666 5666 5665 5665 5665 5664 5663 5661 5659 5657 5654 5651 5647 5642 5637 5631 5624 5616 5608 5599 5589 5580 5571 5561 5552 5542 5531 5518 5504
5623 5627 5631 5634 5636 5639 5642 5647 5649 5651 5653 5654 5655 5656 5659 5659 5659 5659 5659 5658 5656 5655 5653 5651 5648 5645 5641 5637 5632 5626 5619 5611 5603 5594 5586 5577 5567 5558 5549 5538 5526 5513 5500 5484
5620 5624 5628 5631 5633 5635 5639 5646 5643 5645 5647 5648 5648 5651 5653 5651 5652 5652 5651 5650 5648 5647 5645 5643 5639 5636 5632 5627 5621 5614 5606 5599 5590 5581 5573 5564 5555 5545 5534 5522 5509 5495 5479 5463
5617 5620 5626 5627 5630 5633 5636 5636 5638 5640 5642 5643 5643 5644 5645 5645 5645 5645 5644 5643 5641 5639 5637 5634 5631 5627 5622 5616 5609 5602 5594 5586 5578 5569 5560 5552 5541 5529 5516 5503 5489 5473 5457 5442
5616 5620 5622 5623 5626 5628 5630 5632 5634 5635 5636 5637 5638 5638 5639 5639 5639 5638 5637 5635 5633 5631 5628 5625 5621 5616 5610 5604 5597 5589 5582 5574 5566 5557 5547 5536 5525 5512 5499 5483 5467 5452 5436 5421
5613 5617 5619 5620 5623 5624 5626 5628 5630 5631 5631 5632 5632 5633 5632 5632 5631 5630 5629 5627 5625 5622 5619 5615 5610 5604 5599 5592 5585 5578 5570 5561 5553 5544 5533 5520 5508 5494 5479 5462 5447 5430 5414 5401
5611 5613 5615 5618 5619 5621 5622 5624 5624 5625 5625 5626 5626 5625 5625 5624 5623 5622 5620 5618 5615 5612 5608 5604 5599 5593 5587 5581 5573 5566 5558 5550 5540 5529 5517 5505 5491 5475 5460 5444 5426 5411 5396 5383
5607 5610 5613 5615 5616 5617 5618 5619 5619 5619 5619 5619 5618 5618 5617 5616 5614 5613 5611 5608 5605 5601 5597 5593 5587 5582 5576 5569 5561 5554 5545 5536 5525 5513 5500 5487 5474 5462 5443 5426 5411 5396 5381 5368
5605 5607 5609 5610 5611 5612 5613 5614 5614 5614 5613 5612 5611 5610 5609 5607 5605 5604 5601 5599 5595 5591 5586 5582 5577 5570 5564 5557 5549 5540 5531 5521 5509 5495 5482 5469 5456 5442 5431 5417 5396 5382 5369 5356
5600 5601 5603 5605 5606 5606 5607 5607 5607 5606 5606 5604 5603 5602 5600 5599 5597 5595 5592 5589 5584 5580 5576 5571 5565 5559 5552 5544 5536 5526 5515 5504 5492 5480 5466 5453 5439 5423 5408 5394 5384 5374 5360 5344
5593 5595 5597 5599 5599 5600 5600 5599 5598 5597 5596 5595 5594 5593 5591 5590 5587 5585 5581 5578 5574 5570 5565 5559 5553 5546 5539 5531 5521 5511 5500 5488 5476 5462 5449 5436 5421 5406 5392 5380 5368 5357 5345 5332
5588 5589 5590 5591 5591 5591 5590 5590 5589 5588 5588 5587 5585 5584 5582 5580 5577 5575 5571 5568 5564 5559 5553 5547 5541 5534 5526 5517 5507 5496 5485 5473 5460 5447 5433 5419 5405 5391 5379 5367 5355 5342 5328 5313
5581 5582 5582 5582 5582 5582 5581 5581 5581 5580 5579 5578 5576 5574 5573 5571 5568 5565 5561 5557 5552 5547 5542 5536 5529 5521 5513 5503 5492 5481 5469 5457 5443 5430 5417 5403 5389 5377 5366 5354 5343 5331 5315 5304
5572 5573 5573 5573 5573 5573 5573 5573 5572 5570 5569 5569 5567 5566 5563 5560 5557 5554 5550 5546 5541 5536 5530 5523 5516 5507 5497 5487 5477 5465 5453 5441 5429 5415 5402 5388 5375 5364 5353 5343 5332 5319 5309 5299
5561 5563 5564 5564 5564 5564 5563 5563 5562 5562 5561 5560 5558 5556 5553 5550 5547 5544 5540 5535 5530 5524 5517 5510 5501 5492 5482 5472 5461 5449 5438 5425 5412 5399 5385 5373 5363 5353 5342 5331 5319 5310 5301 5294
5552 5553 5554 5555 5555 5555 5554 5554 5553 5553 5552 5550 5548 5545 5543 5540 5537 5533 5528 5523 5517 5511 5504 5496 5487 5477 5467 5456 5445 5433 5421 5409 5396 5384 5372 5362 5352 5342 5331 5319 5309 5301 5294 5288
5544 5545 5545 5545 5546 5546 5545 5545 5544 5543 5542 5539 5537 5535 5533 5529 5525 5521 5516 5512 5505 5498 5489 5481 5471 5461 5450 5439 5428 5416 5404 5393 5380 5369 5360 5350 5341 5331 5319 5310 5301 5294 5289 5284
5536 5536 5536 5537 5537 5537 5536 5535 5534 5533 5532 5530 5528 5525 5522 5518 5514 5510 5504 5499 5491 5483 5474 5464 5454 5444 5434 5423 5412 5400 5388 5376 5366 5357 5348 5338 5329 5319 5310 5301 5294 5289 5285 5280
5527 5527 5527 5528 5528 5527 5527 5527 5526 5524 5523 5521 5518 5515 5511 5507 5503 5497 5491 5483 5475 5466 5457 5447 5438 5428 5417 5406 5395 5384 5372 5362 5354 5345 5336 5327 5317 5309 5302 5295 5290 5285 5281 5277
5518 5518 5518 5518 5518 5519 5518 5518 5517 5515 5513 5510 5507 5503 5499 5494 5489 5482 5475 5467 5459 5450 5440 5431 5421 5411 5401 5390 5379 5368 5358 5349 5341 5332 5324 5314 5307 5300 5295 5290 5285 5281 5278 5276
5508 5508 5509 5509 5509 5509 5508 5508 5506 5504 5502 5499 5495 5490 5485 5480 5475 5467 5459 5451 5443 5434 5425 5415 5404 5394 5384 5372 5362 5354 5345 5336 5328 5320 5311 5304 5298 5292 5288 5284 5281 5278 5277 5277
5500 5500 5500 5500 5500 5499 5499 5497 5495 5493 5489 5485 5481 5477 5471 5465 5458 5451 5443 5435 5426 5417 5408 5397 5387 5377 5366 5356 5349 5341 5333 5324 5316 5307 5300 5294 5289 5284 5280 5277 5276 5275 5276 5279
5492 5492 5492 5492 5491 5490 5489 5486 5484 5481 5477 5473 5468 5462 5456 5449 5441 5434 5426 5418 5410 5401 5391 5380 5369 5359 5350 5343 5336 5328 5320 5311 5302 5296 5291 5285 5280 5276 5273 5272 5273 5274 5277 5281
Wind_Speed
30 30 26 23 35 19 33 32 31 30 32 28 28 28 26 28 29 33 33 32 30 30 31 31 33 34 34 35 38 40 42 46 50 52 56 61 65 69 73 75 74 72 73 74
25 25 25 27 28 29 26 27 28 27 26 30 32 32 34 32 32 33 34 32 30 31 32 33 35 34 36 38 40 42 46 49 53 57 62 66 70 75 76 72 70 71 71 73
25 23 24 28 30 31 30 30 31 29 27 33 35 36 39 37 33 33 31 31 31 32 35 34 34 37 39 40 42 45 48 53 57 62 67 71 75 75 70 68 68 70 72 76
27 26 27 26 27 31 33 34 33 31 33 36 34 39 37 34 32 32 32 33 33 34 34 36 38 38 39 42 45 48 52 57 62 67 71 75 70 66 66 67 69 72 77 84
24 24 26 23 25 27 31 31 35 34 35 30 30 31 33 32 32 32 32 32 33 35 37 37 37 39 42 44 48 52 57 61 66 71 73 66 63 64 66 69 73 78 84 89
20 18 17 20 24 25 27 23 24 24 25 27 30 32 29 29 30 30 32 34 36 38 39 36 39 41 44 47 52 57 62 66 70 68 61 61 62 66 69 74 78 84 90 94
20 17 15 17 21 21 20 19 22 23 24 25 27 27 25 29 28 29 31 33 33 34 36 37 40 43 47 52 56 61 66 68 61 58 59 62 65 69 73 79 85 92 94 96
20 21 16 16 18 20 19 20 19 20 21 24 23 24 24 28 31 32 31 32 32 34 37 39 43 47 51 55 61 65 63 56 55 57 61 64 69 74 80 86 92 95 97 98
26 21 18 16 16 15 17 21 21 21 23 24 25 26 26 27 28 29 31 32 34 36 38 42 46 50 55 60 63 56 53 54 56 60 64 69 74 80 85 91 95 97 100 97
20 19 14 14 14 15 15 17 20 19 19 20 22 24 25 26 27 29 31 33 36 39 42 46 50 55 60 57 51 51 53 56 59 64 69 73 79 85 92 96 97 100 94 84
16 13 14 14 13 13 14 15 17 19 21 23 24 25 27 29 31 33 35 37 39 43 46 50 55 56 50 48 50 53 55 59 64 69 74 79 85 91 96 98 100 92 80 74
16 15 11 10 10 12 14 16 18 20 23 26 28 30 32 33 34 35 36 39 42 45 50 53 49 46 46 49 52 55 60 64 69 74 79 85 90 93 97 99 91 80 73 72
16 14 12 14 16 18 20 23 25 26 28 30 32 33 34 34 34 36 38 41 45 49 49 43 43 46 49 52 56 60 63 68 73 79 83 89 93 96 97 91 80 73 71 73
19 19 19 21 23 24 25 27 30 32 33 33 32 31 31 32 35 37 41 45 46 43 41 42 45 48 52 56 60 63 68 74 79 83 88 92 96 97 94 84 74 69 72 76
27 27 27 27 28 29 31 34 35 34 31 30 30 31 32 34 39 42 43 43 39 39 42 45 49 52 56 59 62 68 73 78 83 87 90 95 96 94 83 74 71 73 76 80
32 33 33 33 33 35 37 38 34 31 30 31 32 34 38 39 39 42 39 37 38 42 45 48 52 56 59 62 67 72 78 82 86 88 92 95 95 83 74 70 74 77 81 73
40 40 37 37 38 39 37 33 31 31 33 36 37 35 37 40 39 36 36 39 42 44 47 52 55 58 62 67 72 78 82 85 87 90 94 93 84 74 69 72 75 79 65 54
38 38 39 40 39 37 36 36 35 33 32 34 35 37 38 36 34 36 39 41 44 47 52 55 59 63 67 73 78 82 84 85 88 92 92 83 73 69 70 73 77 62 54 49
40 40 38 37 37 36 33 31 32 33 34 35 36 35 33 34 36 39 41 44 48 52 55 58 62 67 73 78 81 83 84 87 90 90 83 72 67 69 72 76 63 55 49 41
30 29 29 30 31 32 32 32 33 34 34 34 32 33 34 36 39 41 45 49 52 55 58 63 68 73 77 79 81 83 86 89 88 81 71 66 67 70 74 64 56 49 41 35
28 29 30 31 32 32 32 32 33 32 32 33 33 34 37 39 43 46 49 51 54 58 64 70 74 77 78 80 82 84 88 87 81 70 65 66 68 73 62 55 49 39 32 30
30 31 31 32 32 32 32 30 30 31 32 34 36 38 41 45 47 49 52 55 60 66 70 73 76 77 79 81 83 87 86 78 69 64 65 67 71 59 53 47 39 30 27 26
28 29 29 28 29 29 29 30 32 35 36 37 40 43 46 48 50 53 58 63 67 70 73 75 76 78 79 82 85 83 74 67 63 64 65 70 57 51 44 36 32 23 23 21
28 28 28 29 30 31 32 35 36 38 40 42 44 46 48 51 55 60 64 68 70 72 74 74 76 77 80 85 81 71 64 61 63 64 70 55 50 44 36 32 26 21 19 10
31 32 33 33 33 34 37 38 39 41 43 45 48 51 54 57 62 65 68 69 71 72 73 75 77 81 84 76 67 62 60 63 64 68 53 49 43 38 35 29 19 16 12 6
32 34 35 36 37 37 38 40 42 45 48 51 54 57 60 63 65 67 68 69 70 71 74 77 82 81 72 64 61 60 62 64 65 52 49 44 39 36 28 20 13 9 6 13
30 32 34 36 37 39 41 43 46 49 52 55 58 60 62 64 66 67 67 68 70 74 78 81 76 68 62 60 59 61 65 61 51 48 44 41 36 28 18 11 6 5 17 20
Wind_Direction
210 216 219 217 211 225 216 213 220 228 228 237 242 255 266 262 260 260 263 266 269 271 273 276 280 283 285 286 289 293 295 298 301 306 309 310 309 310 311 310 310 310 311 311
221 218 225 227 222 229 231 218 227 226 227 245 258 259 258 260 261 262 264 268 270 271 275 277 280 283 284 288 292 296 299 302 305 309 309 309 310 311 310 311 311 312 311 311
229 226 223 223 222 226 225 228 237 236 247 251 250 253 259 261 259 265 269 269 270 271 273 276 280 283 288 292 296 298 301 304 307 309 309 310 310 311 311 312 312 311 311 313
221 226 228 230 224 227 232 235 242 242 253 254 257 254 259 261 263 265 265 265 266 270 276 278 280 286 292 295 297 300 304 306 307 308 309 310 311 312 313 312 313 313 315 316
223 227 229 233 234 237 239 238 243 250 255 254 254 249 254 258 259 260 262 266 271 273 275 279 286 291 294 294 297 302 305 306 306 308 310 311 312 313 313 313 313 316 316 317
216 223 223 223 229 232 234 233 237 240 244 245 246 250 254 259 262 267 269 270 270 272 278 285 289 290 292 296 302 304 305 306 308 310 311 313 314 314 313 315 317 318 319 317
203 206 208 223 228 230 233 228 236 238 239 244 248 256 257 263 268 270 273 276 276 284 286 287 287 291 297 302 304 304 306 308 309 311 313 315 315 315 316 317 319 320 319 319
218 231 225 237 226 244 223 222 233 242 250 254 262 264 268 274 274 273 276 279 283 284 283 286 293 298 301 302 303 305 307 308 310 312 315 316 317 318 320 321 321 321 321 320
229 235 232 227 232 234 238 245 240 263 260 263 268 271 272 276 277 276 276 277 278 283 289 294 297 300 301 303 305 305 307 309 312 314 316 318 320 321 322 323 323 322 321 321
225 221 218 216 224 238 246 247 257 265 267 268 270 272 273 275 276 276 279 284 289 292 295 298 299 300 301 304 304 307 309 311 314 316 318 319 320 322 323 324 323 322 322 320
204 211 219 220 227 238 249 260 268 273 275 276 277 277 276 278 280 282 284 288 293 295 297 298 299 301 303 305 307 309 310 313 316 318 319 320 322 323 324 323 323 323 321 319
214 217 214 226 247 262 270 276 282 285 284 283 282 280 279 279 281 284 287 289 292 295 296 299 302 303 305 308 309 311 313 316 318 319 321 322 322 323 324 323 323 322 321 321
210 220 240 263 272 275 279 282 283 285 285 284 282 281 281 282 285 288 289 292 294 296 300 301 303 306 310 311 312 314 316 318 320 321 321 321 322 322 323 323 322 322 322 320
231 243 262 274 276 278 280 281 282 282 283 281 278 278 280 282 284 288 291 294 297 299 300 304 308 310 312 313 313 315 318 319 320 320 321 322 322 323 324 323 322 322 321 322
243 256 270 275 273 275 280 283 284 283 282 280 281 282 284 286 289 292 295 297 298 301 305 309 311 312 312 313 315 318 319 319 319 320 320 322 323 323 323 322 323 323 324 322
258 264 268 271 275 279 284 287 282 281 282 282 282 282 285 289 292 295 296 298 303 306 309 310 311 312 313 314 316 317 318 318 319 319 321 322 324 323 322 323 325 325 325 325
256 261 266 271 278 282 281 277 275 278 280 282 283 284 289 291 293 296 300 304 306 308 308 309 310 312 315 316 317 317 317 317 318 320 322 323 323 322 323 325 326 326 328 329
263 267 271 275 276 274 275 276 278 277 278 281 285 287 290 294 298 300 302 304 305 307 308 310 311 314 317 317 317 315 315 316 318 321 323 323 322 323 324 325 325 327 328 328
266 269 269 268 270 270 268 271 275 278 281 283 286 290 294 296 298 300 302 303 305 306 309 312 315 316 316 315 314 314 315 317 320 322 323 322 323 323 324 324 326 326 327 328
260 261 259 259 263 267 271 274 276 278 281 286 290 291 293 296 298 300 302 303 305 308 312 315 315 315 314 313 313 314 316 319 321 322 321 322 322 323 323 325 325 325 326 327
260 263 266 269 271 272 273 274 276 279 283 286 287 290 293 295 298 301 303 306 309 312 315 315 314 312 311 312 313 315 318 320 322 321 321 321 322 323 324 324 325 324 326 326
263 265 267 269 271 271 271 272 277 281 283 285 288 290 292 296 300 302 306 310 312 313 313 312 311 311 311 312 314 316 320 320 320 320 320 321 322 323 323 324 325 325 325 325
264 264 265 268 267 267 271 274 278 280 283 287 289 292 296 299 302 306 310 312 312 312 311 310 310 310 311 312 315 319 319 318 319 320 321 321 322 323 323 324 325 326 326 327
266 264 266 267 267 268 272 276 280 284 287 290 293 297 300 304 307 310 312 311 310 309 308 309 309 310 311 315 318 318 318 319 319 320 321 321 322 322 323 323 324 323 327 332
261 262 264 267 269 273 277 281 285 287 291 294 297 300 304 307 309 310 309 308 307 308 308 309 309 311 315 318 316 317 318 318 319 320 320 321 321 321 319 317 316 318 328 153
262 264 267 270 274 277 280 284 287 290 293 297 299 302 305 307 307 306 306 306 307 308 309 310 312 315 316 315 316 317 317 318 319 319 320 321 320 319 315 310 304 311 169 157
265 267 270 273 276 280 284 286 289 293 295 298 301 303 304 305 305 306 306 307 308 309 310 313 315 315 314 315 316 316 317 318 318 319 319 319 320 316 306 298 274 183 161 149